| time (UTC) | temp F | wind direction | speed knots | gust knots | rain 1hr in | rain 24hr in | rain mn in | humidity % | barometer mb |
| 20260505041508 | 61 | 73 | 0.9 | 4.3 | 0.00 | 0.00 | 0.00 | 56 | 1007.3 |
| 20260505040505 | 62 | 70 | 0.9 | 4.3 | 0.00 | 0.00 | 0.00 | 56 | 1007.1 |
| 20260505040013 | 62 | 75 | 0.9 | 2.6 | 0.00 | 0.00 | 0.00 | 55 | 1007.1 |
| 20260505035010 | 62 | 77 | 0.9 | 2.6 | 0.00 | 0.00 | 0.00 | 56 | 1007.0 |
| 20260505034507 | 61 | 74 | 1.7 | 4.3 | 0.00 | 0.00 | 0.00 | 56 | 1006.9 |
| 20260505033012 | 62 | 76 | 0.9 | 4.3 | 0.00 | 0.00 | 0.00 | 56 | 1006.8 |
| 20260505032509 | 63 | 74 | 0.9 | 4.3 | 0.00 | 0.00 | 0.00 | 55 | 1006.8 |
| 20260505031505 | 64 | 72 | 0.9 | 4.3 | 0.00 | 0.00 | 0.00 | 54 | 1006.8 |
| 20260505031014 | 64 | 70 | 1.7 | 5.2 | 0.00 | 0.00 | 0.00 | 53 | 1006.7 |
| 20260505030010 | 65 | 63 | 1.7 | 5.2 | 0.00 | 0.00 | 0.00 | 52 | 1006.7 |
| 20260505025507 | 65 | 67 | 1.7 | 5.2 | 0.00 | 0.00 | 0.00 | 52 | 1006.7 |
| 20260505025016 | 65 | 70 | 1.7 | 5.2 | 0.00 | 0.00 | 0.00 | 52 | 1006.7 |
| 20260505024012 | 66 | 80 | 1.7 | 5.2 | 0.00 | 0.00 | 0.00 | 51 | 1006.8 |
| 20260505023508 | 67 | 81 | 1.7 | 6.1 | 0.00 | 0.00 | 0.00 | 50 | 1006.8 |
| 20260505022013 | 67 | 75 | 1.7 | 6.1 | 0.00 | 0.00 | 0.00 | 50 | 1006.8 |
| 20260505020505 | 68 | 76 | 1.7 | 5.2 | 0.00 | 0.00 | 0.00 | 50 | 1007.0 |
| 20260505015008 | 69 | 77 | 1.7 | 5.2 | 0.00 | 0.00 | 0.00 | 49 | 1007.0 |
| 20260505014505 | 69 | 76 | 1.7 | 5.2 | 0.00 | 0.00 | 0.00 | 49 | 1007.0 |
| 20260505013514 | 70 | 72 | 0.9 | 2.6 | 0.00 | 0.00 | 0.00 | 49 | 1007.1 |
| 20260505012006 | 71 | 67 | 0.9 | 2.6 | 0.00 | 0.00 | 0.00 | 49 | 1007.2 |
| 20260505011515 | 71 | 70 | 0.9 | 2.6 | 0.00 | 0.00 | 0.00 | 49 | 1007.2 |
| 20260505011012 | 71 | 65 | 0.9 | 2.6 | 0.00 | 0.00 | 0.00 | 49 | 1007.2 |
| 20260505010007 | 71 | 60 | 0.9 | 5.2 | 0.00 | 0.00 | 0.00 | 49 | 1007.2 |
| 20260505005504 | 71 | 61 | 1.7 | 5.2 | 0.00 | 0.00 | 0.00 | 49 | 1007.2 |
| 20260505004007 | 71 | 70 | 1.7 | 5.2 | 0.00 | 0.00 | 0.00 | 50 | 1007.2 |
| 20260505003004 | 69 | 73 | 1.7 | 4.3 | 0.00 | 0.00 | 0.00 | 52 | 1007.2 |
| 20260505002513 | 68 | 73 | 1.7 | 4.3 | 0.00 | 0.00 | 0.00 | 54 | 1007.2 |
| 20260505001004 | 67 | 67 | 0.9 | 7.8 | 0.00 | 0.00 | 0.00 | 54 | 1007.3 |
| 20260505000513 | 68 | 62 | 0.9 | 7.8 | 0.00 | 0.00 | 0.00 | 54 | 1007.4 |
| 20260504235509 | 69 | 44 | 0.0 | 2.6 | 0.00 | 0.00 | 0.00 | 53 | 1007.5 |
| 20260504235005 | 68 | 46 | 0.0 | 1.7 | 0.00 | 0.00 | 0.00 | 54 | 1007.5 |
| 20260504234514 | 68 | 50 | 0.0 | 2.6 | 0.00 | 0.00 | 0.00 | 54 | 1007.5 |
| 20260504233005 | 67 | 68 | 0.0 | 2.6 | 0.00 | 0.00 | 0.00 | 55 | 1007.5 |
| 20260504232011 | 67 | 67 | 0.0 | 0.9 | 0.00 | 0.00 | 0.00 | 55 | 1007.6 |
| 20260504231508 | 67 | 65 | 0.0 | 0.9 | 0.00 | 0.00 | 0.00 | 55 | 1007.6 |
| 20260504231016 | 67 | 54 | 0.0 | 0.9 | 0.00 | 0.00 | 0.00 | 56 | 1007.7 |
| 20260504230008 | 67 | 14 | 0.0 | 1.7 | 0.00 | 0.00 | 0.00 | 52 | 1007.9 |
| 20260504224506 | 69 | 78 | 0.0 | 1.7 | 0.00 | 0.00 | 0.00 | 41 | 1008.1 |
| 20260504224004 | 69 | 73 | 0.0 | 1.7 | 0.00 | 0.00 | 0.00 | 41 | 1008.0 |
| 20260504223510 | 70 | 70 | 0.0 | 1.7 | 0.00 | 0.00 | 0.00 | 40 | 1008.1 |